Dewpoint
58 52 48 45 38 32 28 26 26 30 29 34 38 37 46 50 52 52 57 58 60 63 67 68 71 70 70 70 69 70 70 70 70 69 68 67 66 67 68 67 68 68 68 67 68 68 68 68 69
52 40 43 42 29 26 24 22 25 32 32 38 39 37 47 51 56 56 57 58 60 64 65 68 71 70 70 70 69 70 69 68 68 67 67 67 66 67 67 67 67 68 68 68 68 68 67 67 68
51 39 43 36 26 22 26 23 31 34 33 32 36 42 47 52 54 56 59 60 60 61 65 69 71 70 70 70 70 70 69 68 68 68 66 66 66 66 67 67 68 67 67 67 68 67 67 67 66
41 39 37 27 22 25 24 27 33 31 31 30 34 44 52 56 54 57 59 60 59 65 67 70 71 70 70 70 70 69 68 68 68 68 67 67 66 67 67 68 68 68 67 67 67 67 67 66 66
41 40 28 22 22 22 24 26 31 31 28 27 29 41 51 57 57 58 58 60 60 64 66 69 71 71 70 70 70 70 69 68 68 67 67 66 66 68 67 66 66 67 67 67 67 67 66 66 66
37 34 24 22 21 22 25 27 27 24 24 28 33 46 52 58 57 58 59 60 60 64 65 67 70 71 71 70 70 69 69 69 68 68 67 66 66 68 67 66 66 67 67 67 67 67 66 66 65
37 32 25 22 23 24 25 26 25 23 25 27 34 44 54 56 58 58 58 59 60 63 64 66 67 69 70 70 69 69 69 68 68 68 68 68 68 68 66 66 66 66 66 67 66 66 66 66 65
36 33 22 21 23 25 27 26 26 24 29 31 34 43 50 56 58 58 57 58 60 60 62 63 65 65 66 67 68 68 68 69 68 68 67 67 67 68 66 66 67 66 65 65 65 64 65 65 64
36 31 24 23 25 28 28 30 32 30 30 30 41 46 51 57 58 57 58 58 59 59 60 62 63 64 65 66 67 68 68 67 66 66 66 65 64 65 62 65 65 66 65 63 63 63 63 65 64
32 28 24 22 19 30 29 30 30 26 27 35 45 51 56 57 57 57 57 57 57 57 58 60 61 63 65 65 66 66 66 66 65 64 63 64 63 64 62 62 63 64 64 63 63 62 63 63 60
29 28 23 20 29 29 30 29 30 26 28 33 44 54 56 56 56 56 57 57 57 57 58 60 61 63 63 63 65 65 64 64 63 63 61 60 61 62 62 61 60 61 61 60 60 60 58 57 56
22 21 23 24 29 28 30 30 27 27 27 28 44 55 56 56 55 56 57 57 57 60 61 62 61 61 62 62 62 62 61 61 60 60 60 58 59 58 59 60 60 60 57 55 55 56 54 54 54
24 23 20 29 29 27 32 30 26 25 26 26 46 55 57 56 56 58 58 58 60 60 61 61 63 61 60 59 61 58 59 58 58 60 59 59 59 58 57 56 57 56 56 55 55 54 53 51 50
27 26 21 28 26 28 30 28 26 26 24 26 30 50 57 58 57 57 57 57 60 59 60 61 63 60 60 60 59 58 58 57 58 59 59 58 58 59 57 57 57 57 57 57 56 54 53 52 50
26 24 26 27 26 25 27 25 24 24 25 24 28 41 51 55 56 56 57 57 59 59 60 60 62 61 60 60 59 59 58 58 57 57 57 57 58 57 57 58 57 58 58 57 57 55 53 50 48
22 25 24 26 28 30 27 24 25 26 25 24 26 33 42 50 53 55 57 57 59 60 61 62 61 60 60 59 60 59 58 58 57 57 58 57 57 57 57 57 57 58 58 57 56 53 51 49 46
22 19 20 26 29 29 27 22 27 28 26 23 24 33 40 44 49 52 55 56 56 57 58 59 58 59 60 59 59 58 58 57 57 57 58 57 57 57 56 56 57 57 57 56 54 52 50 48 46
19 13 16 25 27 27 26 26 28 28 28 25 23 26 37 44 48 50 53 54 55 55 57 58 59 59 59 59 59 59 59 58 57 57 57 57 59 59 58 57 56 56 55 54 53 51 49 48 46
21 13 16 21 27 27 27 23 28 29 29 28 25 28 28 42 41 43 43 44 49 55 56 58 59 59 59 59 58 58 58 58 57 58 59 59 60 59 58 57 56 55 54 52 51 50 48 47 47
24 21 17 29 27 26 26 25 28 29 29 30 29 29 30 37 39 42 43 43 44 47 56 57 59 59 59 59 58 58 58 58 58 59 59 59 58 57 55 56 55 54 53 53 52 50 49 49 47
25 26 22 29 28 27 28 25 28 29 30 31 33 34 35 36 38 40 42 44 44 43 50 57 58 59 59 59 59 58 59 59 58 58 58 57 57 57 55 53 53 53 53 53 52 51 49 48 49
25 27 29 30 28 25 27 24 26 28 29 31 33 35 36 37 38 41 43 46 48 49 52 56 58 59 59 59 59 58 58 57 57 58 57 55 55 53 53 52 52 52 53 52 52 51 49 49 48
28 29 32 31 29 30 25 25 20 27 28 30 32 34 37 38 39 42 44 46 47 50 52 55 58 59 59 60 59 59 58 58 58 57 55 55 53 54 53 53 53 52 52 52 51 51 51 51 49
30 30 31 31 32 27 27 24 22 26 27 29 31 35 37 39 42 43 44 46 46 48 50 52 54 55 58 59 59 59 58 57 56 54 52 53 52 52 51 51 50 50 50 50 51 51 50 50 50
30 28 27 25 24 27 23 23 22 22 26 28 31 35 37 40 42 42 43 44 45 45 49 50 51 51 52 53 56 57 56 54 53 52 51 51 51 48 47 48 48 48 48 49 50 50 49 50 49
28 27 29 18 24 23 21 20 22 30 31 32 33 36 38 40 42 42 43 43 44 45 46 47 47 47 48 48 48 49 49 49 49 48 46 45 42 41 38 37 36 36 37 38 40 45 47 48 48
28 27 28 22 17 22 22 20 28 30 30 32 34 36 38 39 41 41 41 42 43 43 43 43 43 42 43 42 42 41 40 39 37 36 36 35 34 31 32 32 31 31 32 32 33 36 36 36 39
28 27 24 24 16 16 18 18 21 28 29 32 34 35 37 38 39 39 40 40 40 40 39 39 39 38 37 35 33 31 30 29 29 28 27 28 28 28 28 28 28 29 29 30 31 32 33 34 37
26 24 24 25 29 21 13 16 22 25 28 31 33 35 36 36 36 36 37 37 36 35 35 34 33 32 30 30 28 27 26 26 26 25 26 26 27 27 27 27 27 28 29 29 29 30 32 32 33
25 23 22 22 19 23 21 14 28 30 30 32 33 34 35 34 34 33 33 33 33 32 31 30 30 29 28 28 28 29 28 27 27 26 26 26 26 27 28 28 29 29 30 30 30 31 31 32 33
Lifted_Index
3 4 4 3 3 2 2 2 2 3 3 2 2 1 -0 -2 -2 -2 -1 -1 -1 -2 -3 -3 -3 -3 -2 -2 -2 -2 -2 -2 -2 -2 -3 -3 -3 -3 -3 -3 -4 -4 -3 -3 -3 -3 -2 -2 -2
4 5 4 3 2 2 2 2 3 3 3 3 2 1 -0 -1 -2 -2 -1 -1 -1 -2 -2 -3 -3 -3 -3 -2 -2 -2 -2 -2 -2 -2 -2 -2 -2 -3 -3 -3 -3 -3 -3 -3 -3 -2 -2 -2 -2
5 5 5 3 3 2 2 3 3 3 4 4 3 2 0 -1 -1 -1 -1 -1 -1 -2 -2 -3 -3 -3 -3 -3 -3 -2 -2 -2 -1 -1 -1 -1 -1 -2 -2 -3 -3 -3 -2 -2 -2 -2 -2 -1 -1
6 6 5 4 3 3 3 3 3 4 5 5 4 2 0 -1 -1 -1 -1 -1 -1 -2 -3 -3 -3 -3 -3 -3 -3 -2 -2 -2 -2 -1 -1 -1 -1 -2 -2 -2 -2 -2 -2 -2 -2 -2 -1 -1 -0
7 6 5 4 4 4 4 4 4 4 5 5 4 2 0 -1 -1 -1 -1 -1 -1 -2 -2 -3 -3 -3 -3 -3 -3 -2 -2 -2 -2 -1 -1 -1 -1 -2 -2 -1 -1 -2 -2 -1 -1 -1 -1 -0 -0
7 6 5 4 4 4 4 4 5 5 6 6 4 2 0 -1 -1 -0 -0 -0 -1 -1 -2 -2 -3 -3 -3 -3 -3 -2 -2 -2 -1 -1 -1 -1 -2 -2 -1 -1 -1 -1 -1 -1 -1 -1 -1 -0 0
7 6 5 4 4 4 5 5 5 5 6 6 4 2 0 -0 -0 0 0 0 -0 -1 -1 -1 -2 -2 -2 -3 -2 -2 -2 -2 -2 -1 -1 -2 -2 -2 -1 -1 -1 -1 -1 -1 -1 -0 -0 0 0
7 6 5 4 4 4 5 5 5 6 6 6 4 2 1 0 0 1 1 0 0 -0 -0 -1 -1 -1 -2 -2 -2 -2 -2 -2 -1 -1 -1 -1 -1 -1 -1 -0 -1 -1 -0 -0 0 0 0 1 1
7 6 5 5 5 5 5 5 5 6 6 5 4 2 1 0 0 1 1 1 1 1 0 -0 -1 -1 -1 -1 -1 -1 -1 -1 -1 -0 -0 -0 -0 -0 0 0 0 0 0 1 1 1 1 1 1
7 6 5 5 5 5 5 5 5 6 6 5 4 2 0 0 0 1 1 1 1 1 1 0 -0 -1 -1 -1 -1 -1 -1 -1 -0 -0 0 0 0 0 1 1 1 1 1 1 1 1 1 1 1
6 6 6 6 6 5 5 5 6 6 6 6 3 1 0 0 0 1 1 1 1 1 1 0 0 -0 -1 -1 -1 -1 -0 -0 0 0 0 1 1 1 1 2 2 2 2 2 2 2 2 2 2
6 6 6 7 7 6 5 5 6 6 7 6 3 1 0 0 0 1 1 1 1 1 1 0 0 -0 -0 -0 -0 0 0 1 1 1 1 1 1 1 1 2 2 2 2 2 2 2 3 3 3
7 6 7 7 7 6 6 6 6 7 7 6 4 1 0 0 0 0 0 0 0 0 1 0 0 0 0 0 0 1 1 1 1 1 1 1 2 2 2 2 2 2 2 3 3 3 4 4 5
7 7 7 7 7 7 6 6 7 7 7 7 5 2 0 -0 -0 -0 0 0 0 0 1 1 0 0 0 0 1 1 1 1 1 1 1 1 2 2 2 2 2 2 3 3 3 3 4 5 6
7 7 6 6 6 6 6 6 6 7 7 7 6 4 2 0 -0 -0 -0 -0 0 0 1 1 0 0 0 0 1 1 1 1 1 1 1 1 1 2 2 2 2 2 2 3 3 4 5 6 7
7 6 5 5 6 6 6 6 6 7 7 7 7 5 3 1 0 -0 -0 -0 -0 0 0 0 0 1 1 1 1 1 1 2 2 2 1 1 2 2 2 2 2 2 2 3 3 4 6 7 8
6 5 5 5 6 6 5 5 6 6 6 7 7 6 4 3 1 0 -0 -0 -0 -0 0 0 1 1 1 1 1 1 2 2 2 2 1 1 1 2 2 2 2 3 3 3 4 5 6 8 8
5 5 5 5 5 5 4 4 5 6 6 6 6 6 5 3 2 1 -0 -0 -0 -0 -0 0 0 1 1 1 1 2 2 2 2 1 1 1 1 1 2 2 3 3 4 4 5 6 7 8 9
5 5 5 5 6 5 4 4 5 5 5 6 6 6 5 4 2 1 1 0 -0 -0 -0 -0 0 0 1 1 1 2 2 2 2 1 1 1 1 2 2 3 3 4 4 5 5 6 7 8 8
6 5 5 5 6 5 4 4 4 5 5 5 6 6 6 5 4 3 2 1 0 0 0 -0 -0 0 1 1 1 1 1 2 2 1 1 1 2 2 3 3 4 4 5 5 5 6 7 7 7
5 5 5 5 5 5 4 4 5 5 5 5 5 5 6 5 5 5 4 3 2 1 1 0 -0 -0 0 1 1 1 1 1 2 2 2 2 2 3 3 4 4 5 5 5 6 6 6 6 7
5 4 4 4 5 4 4 4 5 5 4 4 5 5 5 5 6 6 6 6 5 4 2 1 0 0 0 1 1 1 1 2 2 2 3 3 3 4 4 5 5 5 6 6 6 6 6 6 6
4 4 4 4 4 4 4 5 5 5 5 5 5 5 5 5 6 6 6 7 7 6 3 1 1 0 0 1 1 1 1 2 2 2 3 3 4 4 5 5 5 6 6 7 7 7 7 7 7
3 3 3 3 3 4 5 5 6 6 5 5 5 5 5 5 6 7 7 7 7 7 4 2 1 1 0 1 1 1 1 2 2 3 3 3 4 4 5 5 6 7 8 8 8 8 7 7 7
3 3 3 2 2 3 5 5 6 6 6 6 6 6 6 6 6 7 7 7 7 7 5 3 2 1 1 1 1 1 1 2 2 3 3 3 3 4 5 6 7 9 10 10 10 9 8 8 8
4 3 2 2 2 3 5 6 7 7 7 7 6 6 6 6 6 6 7 7 7 7 6 5 3 2 2 2 1 1 1 2 2 2 3 3 3 5 6 8 11 13 14 14 13 12 11 10 10
3 3 2 2 2 3 5 6 7 7 7 7 6 6 6 6 6 7 7 6 7 7 7 6 4 3 3 3 2 2 2 2 2 2 2 3 5 7 10 13 15 16 16 16 15 14 14 13 13
3 3 2 2 2 2 3 5 6 7 7 6 5 5 6 6 6 7 7 7 7 7 7 6 5 5 4 4 3 3 3 3 3 3 4 6 9 12 14 16 16 16 16 16 16 15 15 15 15
3 3 2 2 2 2 3 4 6 7 6 5 5 5 6 6 7 7 7 7 6 6 6 6 6 5 5 4 4 3 4 4 5 6 8 11 14 15 16 16 16 16 16 16 15 15 15 15 15
3 3 2 3 3 3 3 5 6 7 6 5 5 6 6 7 7 8 7 7 6 6 6 6 5 5 5 5 4 4 4 6 7 10 12 15 16 17 16 16 16 16 16 16 15 15 15 15 15